DW4497 Weather Reports


time (UTC)temp
C
wind
direction
speed
KPH
gust
KPH
rain 1hr
cm
rain 24hr
cm
rain mn
cm
humidity
%
barometer
mb
20260507000513 6 9 0.0 1.6 0.00 1.17 1.12 94 1008.0
20260507000014 6 9 0.0 1.6 0.00 1.17 1.12 94 1007.9
20260506235512 6 9 0.0 1.6 0.00 1.17 1.12 94 1007.7
20260506235011 6 9 0.0 1.6 0.00 1.17 1.12 94 1007.6
20260506234511 6 9 0.0 1.6 0.00 1.17 1.12 94 1007.6
20260506234012 6 9 0.0 1.6 0.00 1.17 1.12 94 1007.3
20260506233512 6 9 0.0 1.6 0.00 1.17 1.12 94 1007.3
20260506233012 6 9 0.0 1.6 0.00 1.17 1.12 94 1007.3
20260506232511 6 9 0.0 1.6 0.00 1.17 1.12 93 1007.3
20260506232011 6 9 0.0 1.6 0.00 1.17 1.12 93 1007.2
20260506231513 6 9 0.0 3.2 0.00 1.17 1.12 93 1007.2
20260506231010 6 9 0.0 3.2 0.00 1.17 1.12 93 1007.0
20260506230510 6 11 0.0 1.6 0.00 1.17 1.12 94 1007.0
20260506230009 6 11 0.0 1.6 0.00 1.17 1.12 94 1007.0
20260506225511 6 11 0.0 1.6 0.00 1.17 1.12 93 1007.0
20260506225010 6 10 0.0 4.8 0.00 1.17 1.12 93 1007.0
20260506224509 7 11 0.0 3.2 0.00 1.17 1.12 93 1007.1
20260506224008 7 11 0.0 1.6 0.00 1.17 1.12 94 1007.3
20260506223508 7 11 0.0 0.0 0.00 1.17 1.12 93 1007.3
20260506223009 7 11 0.0 0.0 0.00 1.17 1.12 94 1007.3
20260506222511 7 11 0.0 1.6 0.00 1.17 1.12 94 1007.3
20260506222009 6 11 0.0 1.6 0.00 1.17 1.12 93 1007.2
20260506221507 6 11 0.0 1.6 0.00 1.17 1.12 93 1007.3
20260506221007 6 11 0.0 3.2 0.00 1.17 1.12 93 1007.3
20260506220507 6 11 0.0 3.2 0.00 1.17 1.12 93 1007.3
20260506220007 6 11 0.0 3.2 0.00 1.17 1.12 93 1007.4
20260506215507 7 11 0.0 3.2 0.00 1.17 1.12 93 1007.3
20260506215006 7 11 0.0 1.6 0.00 1.17 1.12 93 1007.2
20260506214507 7 11 0.0 3.2 0.00 1.17 1.12 94 1007.2
20260506214010 6 11 0.0 8.0 0.03 1.17 1.12 93 1007.3
20260506213506 6 24 1.6 8.0 0.03 1.17 1.12 93 1007.1
20260506213010 6 11 0.0 6.4 0.03 1.17 1.12 94 1007.1
20260506212506 7 9 1.6 8.0 0.03 1.17 1.12 94 1007.1
20260506212008 7 33 1.6 8.0 0.03 1.17 1.12 94 1007.2
20260506211505 7 346 0.0 4.8 0.03 1.17 1.12 94 1007.1
20260506211005 7 348 0.0 4.8 0.03 1.17 1.12 94 1006.9
20260506210505 7 345 0.0 4.8 0.05 1.17 1.12 94 1006.9
20260506210005 6 247 0.0 3.2 0.05 1.17 1.12 94 1007.0
20260506205506 6 313 0.0 3.2 0.05 1.22 1.12 94 1007.1
20260506205005 6 324 0.0 3.2 0.05 1.22 1.12 94 1007.2
20260506204504 6 324 0.0 3.2 0.08 1.22 1.12 94 1007.3
20260506204005 6 324 0.0 3.2 0.05 1.19 1.09 94 1007.3
20260506203504 6 324 0.0 3.2 0.05 1.19 1.09 94 1007.3
20260506203004 6 46 1.6 3.2 0.05 1.19 1.09 94 1007.2
20260506202504 6 46 0.0 3.2 0.05 1.19 1.09 94 1007.1
20260506202007 6 46 0.0 3.2 0.05 1.19 1.09 94 1007.1
20260506201503 6 303 0.0 4.8 0.05 1.19 1.09 94 1007.1
20260506201002 6 318 1.6 4.8 0.08 1.19 1.09 93 1007.1
20260506200506 6 202 0.0 4.8 0.05 1.17 1.07 94 1007.1
20260506200003 6 227 1.6 6.4 0.05 1.17 1.07 94 1007.1
20260506195505 6 190 0.0 3.2 0.05 1.19 1.07 94 1007.0
20260506195002 6 184 0.0 3.2 0.05 1.19 1.07 94 1007.0
20260506194503 7 185 0.0 4.8 0.03 1.17 1.04 94 1007.0
20260506194002 7 185 0.0 4.8 0.03 1.17 1.04 94 1007.0
20260506193502 7 95 0.0 3.2 0.03 1.17 1.04 94 1006.9
20260506193006 7 95 0.0 3.2 0.03 1.17 1.04 94 1006.8
20260506192503 7 95 0.0 3.2 0.03 1.17 1.04 94 1006.7
20260506192002 7 49 0.0 3.2 0.03 1.17 1.04 94 1006.7
20260506191501 7 49 0.0 3.2 0.03 1.17 1.04 94 1006.7
20260506191000 7 49 0.0 3.2 0.00 1.14 1.02 94 1006.7
20260506190500 7 75 0.0 4.8 0.00 1.14 1.02 94 1006.7
20260506190101 7 75 1.6 4.8 0.00 1.14 1.02 94 1006.7
20260506185600 6 75 0.0 3.2 0.00 1.17 1.02 94 1006.8
20260506185059 6 75 1.6 3.2 0.00 1.17 1.02 94 1006.8
20260506184559 7 82 0.0 3.2 0.03 1.17 1.02 94 1006.9
20260506184059 7 96 0.0 3.2 0.03 1.17 1.02 94 1007.0
20260506183558 6 96 0.0 1.6 0.03 1.17 1.02 94 1007.0
20260506183105 6 96 0.0 1.6 0.03 1.17 1.02 94 1007.1
20260506182558 6 96 0.0 3.2 0.03 1.17 1.02 94 1007.2
20260506182057 6 96 0.0 3.2 0.03 1.17 1.02 93 1007.1
20260506181559 6 95 0.0 6.4 0.03 1.17 1.02 94 1007.3
20260506181058 6 350 1.6 6.4 0.05 1.17 1.02 94 1007.3
20260506180556 6 355 0.0 6.4 0.05 1.17 1.02 94 1007.4
20260506180056 6 355 0.0 6.4 0.05 1.17 1.02 94 1007.5
20260506175555 6 338 1.6 4.8 0.08 1.17 1.02 94 1007.4
20260506175058 6 122 0.0 3.2 0.08 1.17 1.02 94 1007.5
20260506174556 6 122 0.0 3.2 0.05 1.14 0.99 94 1007.7
20260506174056 6 123 0.0 3.2 0.08 1.14 0.99 94 1007.7
20260506173556 6 123 1.6 3.2 0.08 1.14 0.99 93 1007.8
20260506173057 6 126 0.0 3.2 0.10 1.14 0.99 94 1007.8
20260506172556 6 127 1.6 4.8 0.10 1.14 0.99 94 1007.9
20260506172055 6 98 1.6 4.8 0.13 1.14 0.99 94 1007.7
20260506171558 6 360 0.0 4.8 0.13 1.14 0.99 94 1007.7
20260506171054 6 342 1.6 4.8 0.13 1.12 0.97 93 1007.8
20260506170554 6 341 0.0 9.7 0.15 1.12 0.97 94 1007.7
20260506170056 6 355 1.6 9.7 0.15 1.12 0.97 93 1007.6
20260506165553 6 360 3.2 8.0 0.15 1.09 0.94 94 1007.5
20260506165053 6 30 1.6 6.4 0.18 1.09 0.94 94 1007.7
20260506164559 6 22 1.6 6.4 0.18 1.09 0.94 94 1007.9
20260506164056 6 22 0.0 6.4 0.18 1.07 0.91 94 1008.0
20260506163555 6 12 0.0 4.8 0.20 1.07 0.91 94 1008.1
20260506163103 6 125 0.0 4.8 0.20 1.04 0.89 94 1008.1
20260506162552 6 355 0.0 6.4 0.20 1.04 0.89 94 1008.2
20260506162052 6 5 0.0 6.4 0.20 1.02 0.86 94 1008.0
20260506161603 6 5 0.0 6.4 0.20 0.99 0.84 93 1008.1
20260506161055 6 355 1.6 8.0 0.23 0.99 0.84 93 1008.2
20260506160551 6 152 1.6 8.0 0.23 0.97 0.81 93 1008.1
20260506160050 6 307 0.0 8.0 0.23 0.97 0.81 93 1008.2
20260506155549 6 10 0.0 4.8 0.23 0.94 0.79 93 1008.2
20260506155048 6 355 1.6 4.8 0.20 0.91 0.76 93 1008.2
20260506154607 6 132 1.6 4.8 0.23 0.91 0.76 93 1008.3
20260506154047 6 71 1.6 4.8 0.20 0.89 0.71 93 1008.3
20260506153547 6 242 1.6 4.8 0.20 0.86 0.71 93 1008.4
20260506153046 6 259 0.0 3.2 0.18 0.84 0.69 93 1008.4
20260506152546 6 328 0.0 6.4 0.15 0.81 0.66 93 1008.4
20260506152045 6 113 3.2 6.4 0.15 0.81 0.66 93 1008.2
20260506151544 6 328 1.6 6.4 0.15 0.79 0.64 93 1008.6
20260506151043 6 348 1.6 6.4 0.13 0.76 0.61 93 1008.5
20260506150545 6 5 1.6 4.8 0.10 0.71 0.58 93 1008.2
20260506150047 6 344 1.6 4.8 0.10 0.71 0.56 93 1008.3
20260506145545 6 345 1.6 9.7 0.10 0.71 0.56 93 1008.1
20260506145041 6 113 0.0 11.3 0.13 0.71 0.56 92 1008.0
20260506144548 6 326 1.6 11.3 0.10 0.69 0.53 92 1007.9
20260506144041 6 328 0.0 8.0 0.13 0.69 0.53 93 1008.1
20260506143540 6 350 3.2 8.0 0.10 0.66 0.51 93 1008.1
20260506143040 6 25 1.6 8.0 0.10 0.66 0.51 93 1008.0
20260506142540 6 123 1.6 4.8 0.10 0.66 0.51 93 1008.0
20260506142038 6 27 1.6 6.4 0.08 0.64 0.48 93 1008.1
20260506141538 6 103 1.6 8.0 0.08 0.64 0.48 93 1008.3
20260506141037 6 83 1.6 4.8 0.08 0.64 0.48 92 1008.2
20260506140539 6 14 0.0 3.2 0.08 0.61 0.46 92 1008.2
20260506140052 6 5 1.6 4.8 0.08 0.61 0.46 92 1008.3
20260506135535 6 355 1.6 4.8 0.08 0.61 0.46 92 1008.2
20260506135035 6 22 0.0 3.2 0.08 0.58 0.43 93 1008.1
20260506134538 6 22 0.0 3.2 0.08 0.58 0.43 92 1008.1
20260506134035 6 22 1.6 4.8 0.05 0.56 0.41 92 1008.0
20260506133535 6 22 1.6 9.7 0.08 0.56 0.41 92 1008.0
20260506133044 6 330 0.0 9.7 0.08 0.56 0.41 92 1008.0
20260506132534 6 351 0.0 6.4 0.10 0.56 0.41 92 1008.1
20260506132037 6 5 1.6 3.2 0.10 0.56 0.41 92 1008.3
20260506131536 6 360 1.6 3.2 0.10 0.56 0.41 92 1008.4
20260506131033 6 360 0.0 4.8 0.10 0.56 0.41 92 1008.4
20260506130532 6 5 0.0 4.8 0.10 0.53 0.38 92 1008.5
20260506130032 6 360 0.0 4.8 0.13 0.53 0.38 92 1008.6
20260506125532 6 360 1.6 4.8 0.13 0.53 0.38 91 1008.5
20260506125031 6 360 0.0 3.2 0.10 0.51 0.36 91 1008.5
20260506124530 6 360 0.0 4.8 0.13 0.51 0.36 91 1008.7
20260506124030 6 360 1.6 4.8 0.13 0.51 0.36 91 1008.6
20260506123530 6 25 0.0 3.2 0.10 0.48 0.33 91 1008.7
20260506123030 6 25 0.0 8.0 0.13 0.48 0.33 91 1008.7
20260506122528 6 23 3.2 8.0 0.10 0.46 0.30 91 1008.6
20260506122028 6 64 0.0 4.8 0.10 0.46 0.30 91 1008.6
20260506121529 6 88 0.0 4.8 0.13 0.46 0.30 90 1008.8
20260506121025 7 360 0.0 3.2 0.13 0.46 0.30 90 1009.1
20260506120524 7 52 0.0 3.2 0.10 0.43 0.28 90 1009.2
20260506120034 7 40 0.0 1.6 0.08 0.41 0.25 90 1009.3
20260506115523 7 38 0.0 3.2 0.08 0.41 0.25 90 1009.3
20260506115022 7 40 0.0 4.8 0.10 0.41 0.25 91 1009.1
20260506114521 7 5 0.0 4.8 0.08 0.38 0.23 91 1009.2
20260506114023 7 5 1.6 4.8 0.08 0.38 0.23 91 1009.3
20260506113520 7 5 0.0 1.6 0.08 0.38 0.23 92 1009.2
20260506113019 7 5 0.0 1.6 0.05 0.36 0.20 92 1009.1
20260506112517 7 5 0.0 1.6 0.05 0.36 0.20 92 1009.0
20260506112017 7 5 0.0 1.6 0.05 0.36 0.20 92 1008.8
20260506111517 7 5 0.0 1.6 0.03 0.33 0.18 92 1008.6
20260506111017 7 5 0.0 3.2 0.03 0.33 0.18 91 1008.4
20260506110521 7 5 0.0 3.2 0.03 0.33 0.18 91 1008.3
20260506110016 7 355 0.0 3.2 0.03 0.33 0.18 91 1008.3
20260506105516 7 360 0.0 3.2 0.03 0.33 0.18 91 1008.2
20260506105015 7 360 0.0 3.2 0.00 0.30 0.15 91 1008.2
20260506104515 7 360 0.0 3.2 0.00 0.30 0.15 90 1008.3
20260506104019 7 360 0.0 1.6 0.00 0.30 0.15 90 1008.4
20260506103515 7 360 0.0 3.2 0.00 0.30 0.15 89 1008.4
20260506103014 7 360 0.0 3.2 0.03 0.30 0.15 89 1008.4
20260506102513 7 360 0.0 3.2 0.03 0.30 0.15 89 1008.2
20260506102013 7 360 1.6 3.2 0.03 0.30 0.15 90 1008.1
20260506101512 7 360 0.0 3.2 0.03 0.30 0.15 90 1008.2
20260506101016 7 360 0.0 3.2 0.05 0.30 0.15 90 1008.5
20260506100512 7 360 0.0 4.8 0.05 0.30 0.15 89 1008.6
20260506100020 8 349 0.0 8.0 0.05 0.30 0.15 90 1008.3
20260506095511 8 349 1.6 8.0 0.05 0.30 0.15 90 1008.2
20260506095012 8 350 1.6 4.8 0.05 0.30 0.15 90 1008.0
20260506094510 8 350 1.6 3.2 0.05 0.30 0.15 90 1008.3
20260506094009 8 349 0.0 4.8 0.05 0.30 0.15 89 1008.3
20260506093512 8 349 1.6 4.8 0.05 0.30 0.15 89 1008.4
20260506093009 8 12 1.6 4.8 0.03 0.28 0.13 89 1008.2
20260506092509 8 20 0.0 4.8 0.05 0.28 0.13 88 1008.6
20260506092007 8 10 1.6 6.4 0.05 0.28 0.13 87 1008.3
20260506091504 8 5 1.6 6.4 0.03 0.25 0.10 86 1008.6
20260506091004 8 355 1.6 4.8 0.03 0.25 0.10 86 1008.4
20260506090502 8 355 1.6 3.2 0.03 0.25 0.10 87 1008.3
20260506090004 9 351 0.0 6.4 0.03 0.25 0.10 88 1008.9
20260506085502 8 351 1.6 6.4 0.03 0.25 0.10 87 1008.5
20260506085001 9 58 0.0 3.2 0.03 0.25 0.10 87 1008.7
20260506084501 9 13 0.0 4.8 0.03 0.25 0.10 88 1008.5
20260506084100 9 12 1.6 6.4 0.03 0.25 0.10 87 1008.3
20260506083600 9 355 1.6 6.4 0.03 0.25 0.10 88 1008.2
20260506083101 9 130 0.0 4.8 0.03 0.25 0.10 88 1008.4
20260506082601 9 9 0.0 4.8 0.00 0.23 0.08 86 1008.4
20260506082057 9 9 0.0 4.8 0.00 0.23 0.08 85 1008.3
20260506081600 9 9 1.6 4.8 0.00 0.23 0.08 84 1008.4
20260506081056 9 184 0.0 4.8 0.00 0.23 0.08 85 1008.4
20260506080556 9 192 0.0 3.2 0.00 0.23 0.08 85 1008.5
20260506073053 10 19 1.6 4.8 0.00 0.23 0.08 83 1007.9
20260506072552 10 76 0.0 3.2 0.00 0.23 0.08 84 1008.4
20260506072052 10 64 0.0 3.2 0.00 0.23 0.08 85 1008.3
20260506071651 10 64 1.6 3.2 0.00 0.23 0.08 85 1008.0
20260506071049 10 5 0.0 3.2 0.00 0.23 0.08 87 1008.4
20260506070549 10 5 0.0 4.8 0.00 0.23 0.08 87 1008.2
20260506062046 10 36 1.6 9.7 0.00 0.23 0.08 89 1007.7
20260506061551 10 5 3.2 9.7 0.00 0.23 0.08 89 1007.7
20260506061048 10 360 1.6 8.0 0.00 0.23 0.08 90 1008.0
20260506060546 10 9 1.6 4.8 0.00 0.23 0.08 91 1008.1
20260506051043 11 360 3.2 4.8 0.05 0.23 0.08 90 1008.1
20260506050540 11 5 1.6 4.8 0.08 0.23 0.08 90 1008.0
20260506045042 11 5 0.0 3.2 0.08 0.23 0.08 90 1008.2
20260506044537 11 5 0.0 3.2 0.10 0.23 0.08 89 1007.9
20260506044036 11 360 0.0 4.8 0.10 0.23 0.08 89 1007.6
20260506043535 11 355 1.6 6.4 0.10 0.20 0.05 89 1007.8
20260506043036 11 173 0.0 3.2 0.10 0.20 0.05 90 1008.0
20260506042534 11 173 1.6 3.2 0.08 0.18 0.03 89 1007.6
20260506042032 11 173 0.0 4.8 0.08 0.18 0.03 89 1007.3
20260506041531 11 207 0.0 3.2 0.08 0.18 0.03 89 1007.2
20260506041029 12 207 0.0 3.2 0.05 0.15 0.00 88 1007.3
20260506040528 12 207 0.0 3.2 0.05 0.15 0.00 86 1007.5
20260506040036 12 208 0.0 3.2 0.05 0.15 0.00 84 1007.4
20260506035525 12 209 0.0 3.2 0.05 0.15 0.15 80 1007.3
20260506035026 13 209 0.0 3.2 0.03 0.13 0.13 79 1007.2
20260506034526 13 265 0.0 4.8 0.03 0.13 0.13 76 1007.1
20260506034022 13 265 0.0 4.8 0.00 0.10 0.10 73 1007.0
20260506033522 13 319 0.0 6.4 0.00 0.10 0.10 73 1006.9
20260506033022 13 216 1.6 6.4 0.00 0.10 0.10 76 1006.9
20260506032522 13 65 1.6 4.8 0.00 0.10 0.10 78 1006.8
20260506032021 13 157 1.6 3.2 0.00 0.10 0.10 77 1006.9
20260506031520 13 157 0.0 3.2 0.00 0.10 0.10 77 1006.8
20260506031018 13 158 0.0 6.4 0.00 0.10 0.10 75 1006.7
20260506030522 13 159 1.6 6.4 0.00 0.10 0.10 73 1006.5
20260506030017 14 232 0.0 3.2 0.00 0.10 0.10 72 1006.6
20260506025515 14 232 0.0 3.2 0.00 0.10 0.10 70 1006.7
20260506025013 15 232 1.6 6.4 0.00 0.10 0.10 67 1006.5
20260506024512 15 232 1.6 6.4 0.00 0.10 0.10 65 1006.4
20260506024012 15 257 3.2 12.9 0.00 0.10 0.10 62 1006.3
20260506023514 15 225 3.2 12.9 0.00 0.10 0.10 61 1006.2
20260506023016 15 229 1.6 8.0 0.00 0.10 0.10 61 1006.1
20260506022511 15 235 3.2 8.0 0.00 0.10 0.10 61 1006.2
20260506022016 15 221 1.6 6.4 0.00 0.10 0.10 62 1006.3
20260506021525 15 228 3.2 8.0 0.00 0.10 0.10 61 1006.4
20260506021011 15 228 3.2 8.0 0.00 0.10 0.10 62 1006.2
20260506020510 15 232 3.2 9.7 0.00 0.10 0.10 64 1006.1
20260506020010 16 230 4.8 14.5 0.00 0.10 0.10 64 1006.0
20260506015510 16 236 3.2 14.5 0.00 0.10 0.10 68 1006.4
20260506015017 16 230 1.6 9.7 0.00 0.10 0.10 71 1006.3
20260506014509 16 242 3.2 11.3 0.00 0.10 0.10 72 1006.3
20260506014008 16 237 4.8 11.3 0.00 0.10 0.10 74 1006.2
20260506013507 16 236 3.2 6.4 0.00 0.10 0.10 80 1006.0
20260506013006 16 236 3.2 6.4 0.00 0.10 0.10 80 1005.7
20260506012505 16 224 1.6 3.2 0.00 0.10 0.10 79 1005.2
20260506012003 16 224 0.0 3.2 0.00 0.10 0.10 78 1005.1
20260506011504 16 224 1.6 3.2 0.00 0.10 0.10 78 1004.9
20260506011005 16 224 0.0 3.2 0.00 0.10 0.10 78 1004.8
20260506010505 16 224 0.0 3.2 0.00 0.10 0.10 78 1004.7
20260506010118 16 224 0.0 4.8 0.00 0.10 0.10 78 1004.5
20260506005600 16 224 1.6 8.0 0.00 0.10 0.10 78 1004.4
20260506005100 16 222 1.6 4.8 0.00 0.10 0.10 78 1004.3
20260506004559 16 225 1.6 3.2 0.00 0.10 0.10 76 1004.2
20260506004058 16 225 1.6 6.4 0.00 0.10 0.10 77 1004.2
20260506003557 16 225 1.6 8.0 0.00 0.10 0.10 76 1004.0
20260506003057 16 225 1.6 8.0 0.00 0.10 0.10 77 1004.0
20260506002556 16 227 1.6 4.8 0.00 0.10 0.10 77 1003.9
20260506002057 17 227 1.6 4.8 0.00 0.10 0.10 77 1003.8
20260506001558 17 227 1.6 6.4 0.00 0.10 0.10 77 1003.6
20260506001055 17 126 1.6 6.4 0.00 0.10 0.10 77 1003.6